Change the Weather History Date:

Monday, May 5, 2014

  Actual Average Record
Temperature  
Mean Temperature 49 °F -  
Max Temperature 60 °F 66 °F 82 °F (1999)
Min Temperature 39 °F 46 °F 33 °F (1971)
Degree Days  
Heating Degree Days 16    
Moisture  
Dew Point 33 °F    
Average Humidity 55    
Maximum Humidity 73    
Minimum Humidity 33    
Precipitation  
Precipitation 0.00 in - - ()
Sea Level Pressure  
Sea Level Pressure 30.01 in    
Wind  
Wind Speed 4 mph (NW)    
Max Wind Speed 10 mph    
Max Gust Speed -    
Visibility 10 miles    
Events      
Averages and records for this station are not official NWS values.
T = Trace of Precipitation, MM = Missing Value Source: NWS Daily Summary

Daily Weather History Graph

Daily Weather History Graph

Search for Another Location

Airport or City:

Trip Planner

Search our weather history database for the weather conditions in past years. The results will help you decide how hot, cold, wet, or windy it might be!

Date:

Astronomy

May. 05, 2014 Rise Set
Actual Time 6:14 AM EDT 8:19 PM EDT
Civil Twilight 5:44 AM EDT 8:49 PM EDT
Nautical Twilight 5:07 AM EDT 9:25 PM EDT
Astronomical Twilight 4:28 AM EDT 10:05 PM EDT
Moon 11:32 AM EDT (5/5) 1:02 AM EDT (5/5)
Length of Visible Light 15h 04m
Length of Day
14h 05m
Waxing Crescent, 36% of the Moon is Illuminated
May 5
Waxing Crescent
May 6
First Quarter
May 14
Full
May 21
Last Quarter
May 28
New

Hourly Weather History & Observations

Time (EDT) Temp. Windchill Dew Point Humidity Pressure Visibility Wind Dir Wind Speed Gust Speed Precip Events Conditions
12:53 AM 45.0 °F 40.6 °F 32.0 °F 60% 30.07 in 10.0 mi North 8.1 mph - N/A   Clear
1:53 AM 44.1 °F 38.6 °F 33.1 °F 65% 30.06 in 10.0 mi North 10.4 mph - N/A   Clear
2:53 AM 43.0 °F - 33.1 °F 68% 30.05 in 10.0 mi Calm Calm - N/A   Clear
3:53 AM 42.1 °F 39.2 °F 32.0 °F 67% 30.04 in 10.0 mi North 4.6 mph - N/A   Clear
4:53 AM 39.9 °F 36.7 °F 32.0 °F 73% 30.05 in 10.0 mi NNW 4.6 mph - N/A   Clear
5:53 AM 41.0 °F - 32.0 °F 70% 30.05 in 10.0 mi Calm Calm - N/A   Clear
6:53 AM 41.0 °F - 33.1 °F 73% 30.08 in 10.0 mi Calm Calm - N/A   Clear
7:53 AM 43.0 °F 40.3 °F 34.0 °F 71% 30.10 in 10.0 mi South 4.6 mph - N/A   Clear
8:53 AM 46.0 °F 44.8 °F 34.0 °F 63% 30.09 in 10.0 mi ENE 3.5 mph - N/A   Clear
9:53 AM 48.9 °F - 33.1 °F 54% 30.09 in 10.0 mi Calm Calm - N/A   Clear
10:53 AM 51.1 °F - 33.1 °F 50% 30.07 in 10.0 mi SE 5.8 mph - N/A   Clear
11:53 AM 54.0 °F - 35.1 °F 49% 30.05 in 10.0 mi Calm Calm - N/A   Clear
12:53 PM 55.9 °F - 34.0 °F 44% 30.05 in 10.0 mi Calm Calm - N/A   Mostly Cloudy
1:53 PM 57.2 °F - 32.0 °F 38% 30.00 in 10.0 mi NNE 5.8 mph - N/A   Mostly Cloudy
2:53 PM 57.9 °F - 33.1 °F 39% 30.00 in 10.0 mi West 4.6 mph - N/A   Overcast
3:53 PM 59.0 °F - 30.9 °F 35% 29.98 in 10.0 mi Calm Calm - N/A   Overcast
4:53 PM 59.0 °F - 30.0 °F 33% 29.98 in 10.0 mi Calm Calm - N/A   Overcast
5:53 PM 57.2 °F - 32.0 °F 38% 29.93 in 10.0 mi Calm Calm - N/A   Overcast
6:53 PM 57.2 °F - 30.2 °F 36% 29.92 in 10.0 mi SSW 4.6 mph - N/A   Overcast
7:53 PM 52.0 °F - 35.1 °F 53% 29.95 in 10.0 mi South 10.4 mph - N/A   Overcast
8:53 PM 50.0 °F - 36.0 °F 59% 29.93 in 10.0 mi South 5.8 mph - N/A   Overcast
9:53 PM 50.0 °F - 36.0 °F 59% 29.95 in 10.0 mi Calm Calm - N/A   Overcast
10:53 PM 50.0 °F - 37.0 °F 61% 29.94 in 10.0 mi WNW 3.5 mph - N/A   Overcast
11:53 PM 50.0 °F - 37.4 °F 62% 29.92 in 10.0 mi Calm Calm - N/A   Overcast